SL-8 DEB, 1392

Orbit data source: Space-Track

SL-8 DEB, 1392 is space debris in LEO originally from a launch on Mon, 15 Mar 1965 UTC launched from the Tyuratam Missile And Space Complex (TTMTR). Debris objects in space refer to the collection of defunct objects orbiting the Earth. Examples of debris include non-operational satellites, rocket bodies, and fragments generated from explosions, collisions, or faulty payload assembly.

Loading next visibility...
Identifier
1392, 1965-020AH
Orbit
LEO
Country
Flag of CISCIS
Related business
Manufacturer
Unknown
Mission
Spacecraft
Bus & Motor
Unknown
Mass
Unknown
Launch date (UTC)
1965-03-15 (61 years ago)
Launch vehicle
Unknown
Launch site
Tyuratam Missile And Space Complex (TTMTR)
Object type
Payload
Rocket body
Debris
Shape & HBR
Unknown shape, 0.2 m
Radar Cross Section
Medium (>0.1 m² and <1 m²)

Expand to show TLE details & history
Last TLE update: 13 hours ago

TLE from 13 hours ago
0 SL-8 DEB
1 01392U 65020AH  26127.03400765  .00030327  00000-0  12191-2 0  9992
2 01392  55.8593  38.4057 0133121 328.5773  30.7351 15.16903196 89888
Epoch: 2026-05-07T00:48Z
TLE epoch observation values (Epoch: 2026-05-07T00:48:58.260Z)
Latitude
-0.00005°
Longitude
161.27697°
Altitude
437.834 km
Speed
7.694 km/s
True Right ascension
02h 33m 37s
True Declination
0° 00' 00"
Sunlit
Object was in daylight at epoch
Visualization orbit readout
Latitude
Unknown
Longitude
Unknown
Altitude
Unknown
Speed
Unknown
Apparent Right ascension
Unknown
Apparent Declination
Unknown
Sunlit
N/A
Visualization observer readout
Local Sidereal Time
22:18:08
Azimuth
Unknown
Elevation
Unknown
Doppler factor
Unknown
Orbital elements
Apogee altitude
606.798 km
Perigee altitude
423.272 km
Semi-major axis
6,893.172 km
Eccentricity
0.01331
Inclination
55.8593°
RAAN
38.4057°
Arg. of periapsis
328.5773°
True anomaly
31.52599°
Mean anomaly
30.7351°
Eccentric anomaly
31.12941°
Mean motion
3.7924 °/min
Orbital period
94.93 mins
BSTAR
0.0012191
Loading maneuver chart data...
Computing Atmospheric mass density...

Documentation

Showing up to 5 results
|